Location: Sungai Kamana Besar
(2.6333°N, 113.4333°E)
Time: 04:46:37
(UTC+00:00)

Ariane H10 - Pass Details

Date: 29 May 2022
Orbit: 250 x 22706 km, 3.8° (Epoch: 24 June)

Event Time Altitude Azimuth Distance (km) Brightness Sun altitude
Exits shadow 20:35:41 72° 211° (SSW) 711 2.6 -23.9°
Maximum altitude 20:35:57 76° 173° (S) 733 2.7 -23.8°
Drops below altitude 10° 20:46:52 10° 88° (E) 5,482 8.3 -21.3°
Sets 20:57:15 0° 87° (E) 9,526 9.9 -19.0°
